Hourly Weather Dziady

Today, 10 May, Monday

Time Temperature Precipitation Wind Pressure Humidity
00:00 +10°C° 0 mm 3 mps 739 mmHg 84%
01:00 +9°C° 0 mm 3 mps 739 mmHg 85%
02:00 +9°C° 0 mm 3 mps 739 mmHg 85%
03:00 +8°C° 0 mm 3 mps 739 mmHg 85%
04:00 +8°C° 0 mm 3 mps 739 mmHg 85%
05:00 +8°C° 0 mm 4 mps 739 mmHg 80%
06:00 +11°C° 0 mm 4 mps 739 mmHg 74%
07:00 +13°C° 0 mm 5 mps 739 mmHg 69%
08:00 +15°C° 0 mm 5 mps 739 mmHg 64%
09:00 +17°C° 0 mm 5 mps 739 mmHg 58%
10:00 +19°C° 0 mm 4 mps 739 mmHg 53%
11:00 +21°C° 0 mm 4 mps 739 mmHg 51%
12:00 +22°C° 0 mm 5 mps 738 mmHg 49%
13:00 +23°C° 0 mm 5 mps 738 mmHg 47%
14:00 +23°C° 0 mm 4 mps 738 mmHg 49%
15:00 +23°C° 0 mm 4 mps 738 mmHg 51%
16:00 +23°C° 0 mm 4 mps 738 mmHg 53%
17:00 +21°C° 0 mm 4 mps 738 mmHg 61%
18:00 +19°C° 0 mm 4 mps 738 mmHg 68%
19:00 +17°C° 0 mm 4 mps 738 mmHg 76%
20:00 +16°C° 0 mm 3 mps 738 mmHg 79%
21:00 +14°C° 0 mm 3 mps 738 mmHg 82%
22:00 +13°C° 0 mm 3 mps 738 mmHg 85%
23:00 +12°C° 0 mm 3 mps 738 mmHg 87%

Tomorrow, 11 May, Tuesday

Time Temperature Precipitation Wind Pressure Humidity
00:00 +12°C° 0 mm 3 mps 738 mmHg 88%
01:00 +11°C° 0 mm 3 mps 738 mmHg 90%
02:00 +11°C° 0 mm 3 mps 737 mmHg 90%
03:00 +11°C° 0 mm 3 mps 737 mmHg 90%
04:00 +10°C° 0 mm 3 mps 737 mmHg 91%
05:00 +12°C° 0 mm 4 mps 737 mmHg 85%
06:00 +13°C° 0 mm 5 mps 737 mmHg 80%
07:00 +15°C° 0 mm 6 mps 736 mmHg 74%
08:00 +17°C° 0 mm 6 mps 736 mmHg 69%
09:00 +20°C° 0 mm 6 mps 736 mmHg 63%
10:00 +22°C° 0 mm 7 mps 736 mmHg 58%
11:00 +23°C° 0 mm 7 mps 736 mmHg 56%
12:00 +24°C° 0 mm 7 mps 736 mmHg 53%
13:00 +24°C° 0 mm 7 mps 736 mmHg 51%
14:00 +24°C° 0 mm 7 mps 736 mmHg 54%
15:00 +24°C° 0 mm 7 mps 735 mmHg 56%
16:00 +24°C° 0 mm 6 mps 735 mmHg 58%
17:00 +22°C° 0 mm 6 mps 735 mmHg 63%
18:00 +20°C° 0 mm 7 mps 735 mmHg 67%
19:00 +17°C° 0 mm 7 mps 735 mmHg 72%
20:00 +16°C° 0 mm 7 mps 735 mmHg 72%
21:00 +15°C° 0 mm 6 mps 735 mmHg 72%
22:00 +14°C° 0 mm 6 mps 735 mmHg 72%
23:00 +14°C° 0 mm 6 mps 735 mmHg 72%

Day after tomorrow, 12 May, Wednesday

Time Temperature Precipitation Wind Pressure Humidity
00:00 +13°C° 0 mm 5 mps 734 mmHg 72%
01:00 +12°C° 0 mm 5 mps 734 mmHg 71%
02:00 +12°C° 0 mm 5 mps 734 mmHg 69%
03:00 +10°C° 0 mm 5 mps 734 mmHg 67%
04:00 +11°C° 0 mm 4 mps 734 mmHg 64%
05:00 +12°C° 0 mm 5 mps 733 mmHg 64%
06:00 +13°C° 0 mm 5 mps 733 mmHg 64%
07:00 +14°C° 0 mm 6 mps 733 mmHg 63%
08:00 +16°C° 0 mm 7 mps 733 mmHg 61%
09:00 +18°C° 0 mm 8 mps 733 mmHg 59%
10:00 +20°C° 0 mm 8 mps 733 mmHg 57%
11:00 +21°C° 0 mm 8 mps 733 mmHg 56%
12:00 +21°C° 0 mm 9 mps 732 mmHg 55%
13:00 +22°C° 0 mm 9 mps 732 mmHg 54%
14:00 +21°C° 0 mm 9 mps 732 mmHg 58%
15:00 +18°C° 0 mm 8 mps 732 mmHg 62%
16:00 +17°C° 0 mm 8 mps 732 mmHg 66%
17:00 +16°C° 0 mm 8 mps 731 mmHg 67%
18:00 +15°C° 0 mm 7 mps 731 mmHg 67%
19:00 +14°C° 0 mm 7 mps 731 mmHg 68%
20:00 +12°C° 0 mm 7 mps 731 mmHg 69%
21:00 +11°C° 0 mm 7 mps 731 mmHg 71%
22:00 +10°C° 0 mm 7 mps 730 mmHg 73%
23:00 +9°C° 0 mm 6 mps 730 mmHg 75%

13 May, Thursday

Time Temperature Precipitation Wind Pressure Humidity
00:00 +8°C° 0 mm 5 mps 730 mmHg 78%
01:00 +8°C° 0 mm 5 mps 729 mmHg 80%
02:00 +7°C° 0 mm 4 mps 729 mmHg 82%
03:00 +6°C° 0 mm 4 mps 729 mmHg 84%
04:00 +7°C° 0 mm 3 mps 729 mmHg 85%
05:00 +8°C° 0 mm 3 mps 729 mmHg 83%
06:00 +9°C° 0 mm 2 mps 728 mmHg 82%
07:00 +10°C° 0 mm 2 mps 728 mmHg 80%
08:00 +10°C° 0.2 mm 2 mps 728 mmHg 82%
09:00 +11°C° 0.2 mm 1 mps 728 mmHg 85%
10:00 +11°C° 0.2 mm 1 mps 729 mmHg 87%
11:00 +12°C° 0.2 mm 1 mps 729 mmHg 87%
12:00 +12°C° 0.2 mm 1 mps 729 mmHg 86%
13:00 +13°C° 0.2 mm 1 mps 729 mmHg 86%
14:00 +14°C° 0.1 mm 1 mps 729 mmHg 81%
15:00 +15°C° 0.1 mm 2 mps 729 mmHg 76%
16:00 +16°C° 0.1 mm 2 mps 729 mmHg 71%
17:00 +15°C° 0.1 mm 2 mps 729 mmHg 74%
18:00 +13°C° 0.1 mm 3 mps 729 mmHg 77%
19:00 +12°C° 0.1 mm 3 mps 729 mmHg 81%
20:00 +11°C° 0 mm 3 mps 729 mmHg 82%
21:00 +10°C° 0 mm 3 mps 730 mmHg 83%
22:00 +9°C° 0 mm 3 mps 730 mmHg 84%
23:00 +9°C° 0 mm 3 mps 730 mmHg 86%

14 May, Friday

Time Temperature Precipitation Wind Pressure Humidity
00:00 +8°C° 0 mm 3 mps 730 mmHg 88%
01:00 +7°C° 0 mm 3 mps 730 mmHg 89%
02:00 +7°C° 0 mm 3 mps 730 mmHg 90%
03:00 +7°C° 0 mm 3 mps 730 mmHg 91%
04:00 +7°C° 0 mm 3 mps 730 mmHg 92%
05:00 +8°C° 0 mm 3 mps 730 mmHg 87%
06:00 +10°C° 0 mm 4 mps 731 mmHg 81%
07:00 +10°C° 0 mm 5 mps 731 mmHg 76%
08:00 +12°C° 0 mm 5 mps 731 mmHg 72%
09:00 +13°C° 0 mm 5 mps 731 mmHg 68%
10:00 +14°C° 0 mm 5 mps 732 mmHg 64%
11:00 +14°C° 0 mm 5 mps 732 mmHg 65%
12:00 +14°C° 0 mm 5 mps 732 mmHg 66%
13:00 +13°C° 0 mm 5 mps 732 mmHg 68%
14:00 +13°C° 0 mm 5 mps 733 mmHg 71%
15:00 +13°C° 0 mm 5 mps 733 mmHg 74%
16:00 +12°C° 0 mm 5 mps 733 mmHg 78%
17:00 +12°C° 0 mm 4 mps 733 mmHg 80%
18:00 +11°C° 0 mm 4 mps 734 mmHg 83%
19:00 +11°C° 0 mm 4 mps 734 mmHg 86%
20:00 +10°C° 0.1 mm 4 mps 734 mmHg 89%
21:00 +10°C° 0.1 mm 4 mps 734 mmHg 91%
22:00 +10°C° 0.1 mm 3 mps 735 mmHg 94%
23:00 +10°C° 0.2 mm 3 mps 735 mmHg 94%

15 May, Saturday

Time Temperature Precipitation Wind Pressure Humidity
00:00 +10°C° 0.2 mm 3 mps 735 mmHg 95%
01:00 +10°C° 0.2 mm 3 mps 735 mmHg 95%
02:00 +10°C° 0.1 mm 3 mps 735 mmHg 95%
03:00 +10°C° 0.1 mm 3 mps 735 mmHg 96%
04:00 +10°C° 0.1 mm 3 mps 736 mmHg 96%
05:00 +10°C° 0.1 mm 2 mps 736 mmHg 94%
06:00 +10°C° 0.1 mm 2 mps 736 mmHg 93%
07:00 +12°C° 0.1 mm 2 mps 736 mmHg 92%
08:00 +12°C° 0.1 mm 2 mps 737 mmHg 87%
09:00 +13°C° 0.1 mm 2 mps 737 mmHg 83%
10:00 +14°C° 0.1 mm 2 mps 737 mmHg 79%
11:00 +15°C° 0.3 mm 2 mps 737 mmHg 73%
12:00 +16°C° 0.3 mm 2 mps 737 mmHg 67%
13:00 +17°C° 0.3 mm 2 mps 737 mmHg 61%
14:00 +18°C° 0.2 mm 2 mps 737 mmHg 61%
15:00 +18°C° 0.2 mm 2 mps 737 mmHg 61%
16:00 +18°C° 0.2 mm 2 mps 737 mmHg 61%
17:00 +16°C° 0.1 mm 1 mps 736 mmHg 67%
18:00 +15°C° 0.1 mm 1 mps 736 mmHg 73%
19:00 +14°C° 0.1 mm 1 mps 736 mmHg 79%
20:00 +13°C° 0 mm 1 mps 736 mmHg 82%
21:00 +12°C° 0 mm 1 mps 737 mmHg 84%
22:00 +11°C° 0 mm 0 mps 737 mmHg 87%
23:00 +11°C° 0 mm 1 mps 737 mmHg 88%
Show more